Starlink 31236

operational
NORAD ID: 58841 Int'l Des: 2024-017 Owner: SPXS Country: US Constellation: starlink
LEOCIRCULAR

Über Starlink 31236

Beschreibung wird geladen...

Live-Position

3D-Globus wird geladen...

Nächste Überflüge

Höhenverlauf

Altitude vs Time

uPlot chart will show altitude changes over time

Zweizeiliger Elementsatz

1 58841U 24017R 25258.37995244 .00000342 00000-0 23693-4 0 9991
2 58841 53.1605 298.7484 0001480 82.3078 277.8091 15.30192309 93213
Epoch: 15. Sept. 2025 • Age: 19 hours

Aktueller Status

Höhe 475.0 km
Geschwindigkeit 7.63 km/s
Subsatellitenpunkt 12.05°N, 111.04°W
Startdatum 24. Jan. 2024
Alter 1.6 years
Typ internet

Technische Details

Klassifizierung Payload
Masse 730.00 kg
Trockenmasse 700.00 kg
Gesamtmasse 730.00 kg
Länge 0.30 m
Durchmesser 4.10 m
Spannweite 29.00 m
Form Box + pan
Hersteller SPXS
Bus-Typ Starlink V2M
Phasenstatus In Orbit
Besitzer/Staat SPXS/US

Große Konstellationen

Loading constellations...